Weather in Bori

Russia / Pskov Oblast     58°39′49″N   29°13′04″E
temp.,
°C
wind,
m/s
gust,
m/s
humid.,
%
clouds,
%
prec.,
mm/h
press.,
hPa
HPBL,
m
14 april, wed
wed1400:00+4nnw4968100 0.0 1020473
03:00+3nnw4968100 0.0 1020528
06:00+3nnw4967100 0.0 1019612
09:00+3nw3870100 0.0 1020450
12:00+8nnw3445100 0.0 10211055
15:00+10nnw3439100 0.0 10211524
18:00+8nnw3447100 0.0 10221103
21:00+5n2763100 0.0 1024246
15 april, thu
thu1500:00+3n3977100 0.0 1025376
03:00+3ne31178100 0.0 1026399
06:00+2nne3117479 0.0 1027428
09:00+4ne51055100 0.0 1028724
12:00+7ne584266 0.0 10281169
15:00+10ne683269 0.0 10261469
18:00+9ne594371 0.0 10271442
21:00+5ne51163100 0.0 1028606
16 april, fri
fri1600:00+4ne4126894 0.0 1028562
03:00+3ne4127699 0.0 1028489
06:00+2ne41277100 0.0 1028463
09:00+4ene51264100 0.0 1028542
12:00+8ene5952100 0.0 1028764
15:00+11ene5846100 0.0 10281041
18:00+10ene51044100 0.0 1028983
21:00+8ene4125193 0.0 1029691
17 april, sat
sat1700:00+6ene4126452 0.0 1030422
03:00+4ene4117334 0.0 1030349
06:00+2ene3117962 0.0 1031310
09:00+6e4105973 0.0 1031451
12:00+12e573917 0.0 10311042
15:00+14e573172 0.0 10301387
18:00+13e473796 0.0 10301388
21:00+7ene286167 0.0 1030139
18 april, sun
sun1800:00+5ene29739 0.0 1031160
03:00+4e277756 0.0 1032140
06:00+2e278011 0.0 1032118
09:00+8e37545 0.0 1032407
12:00+13ese45395 0.0 10311263
15:00+15ese45335 0.0 10311570
18:00+14ese35385 0.0 10301577
21:00+8ese22625 0.0 103116